Time,TemperatureF,DewpointF,PressureIn,WindDirection,WindDirectionDegrees,WindSpeedMPH,WindSpeedGustMPH,Humidity,HourlyPrecipIn,Conditions,Clouds,dailyrainin,SoftwareType,DateUTC
2013-02-27 00:02:00,29.3,24.2,29.86,NW,325,8.2,12.6,81,0.00,,,0.00,WUHU216HW,2013-02-27 06:02:00,
2013-02-27 00:07:00,29.1,24.3,29.86,NW,324,7.0,12.9,82,0.00,,,0.00,WUHU216HW,2013-02-27 06:07:00,
2013-02-27 00:12:00,28.9,24.1,29.86,NW,320,7.2,9.5,82,0.00,,,0.00,WUHU216HW,2013-02-27 06:12:00,
2013-02-27 00:17:00,28.7,23.6,29.86,NNW,330,8.0,10.0,81,0.00,,,0.00,WUHU216HW,2013-02-27 06:17:00,
2013-02-27 00:22:00,28.9,24.1,29.86,North,349,4.2,8.3,82,0.00,,,0.00,WUHU216HW,2013-02-27 06:22:00,
2013-02-27 00:27:00,28.9,23.8,29.86,North,1,6.5,8.7,81,0.00,,,0.00,WUHU216HW,2013-02-27 06:27:00,
2013-02-27 00:32:00,28.9,23.8,29.86,NNW,341,4.5,5.4,81,0.00,,,0.00,WUHU216HW,2013-02-27 06:32:00,
2013-02-27 00:37:00,28.7,23.4,29.86,NNW,328,6.4,7.9,80,0.00,,,0.00,WUHU216HW,2013-02-27 06:37:00,
2013-02-27 00:42:00,28.5,23.5,29.86,NNW,330,5.7,7.9,81,0.00,,,0.00,WUHU216HW,2013-02-27 06:42:00,
2013-02-27 00:47:00,28.5,23.5,29.86,NNW,331,7.5,10.8,81,0.00,,,0.00,WUHU216HW,2013-02-27 06:47:00,
2013-02-27 00:52:00,28.4,23.4,29.86,NW,325,6.2,8.7,81,0.00,,,0.00,WUHU216HW,2013-02-27 06:52:00,
2013-02-27 00:57:00,28.5,23.5,29.87,NNW,342,6.7,9.3,81,0.00,,,0.00,WUHU216HW,2013-02-27 06:57:00,
2013-02-27 01:02:00,28.5,23.5,29.87,NNW,328,4.9,7.2,81,0.00,,,0.00,WUHU216HW,2013-02-27 07:02:00,
2013-02-27 01:07:00,28.5,23.5,29.87,NW,322,6.1,7.9,81,0.00,,,0.00,WUHU216HW,2013-02-27 07:07:00,
2013-02-27 01:12:00,28.5,23.7,29.87,NNW,333,5.4,6.9,82,0.00,,,0.00,WUHU216HW,2013-02-27 07:12:00,
2013-02-27 01:17:00,28.5,23.7,29.87,NW,323,6.8,11.3,82,0.00,,,0.00,WUHU216HW,2013-02-27 07:17:00,
2013-02-27 01:22:00,28.5,23.7,29.87,NNW,336,6.2,7.9,82,0.00,,,0.00,WUHU216HW,2013-02-27 07:22:00,
2013-02-27 01:27:00,28.4,23.6,29.87,NW,322,5.0,7.9,82,0.00,,,0.00,WUHU216HW,2013-02-27 07:27:00,
2013-02-27 01:32:00,28.4,23.6,29.87,NNW,338,6.7,10.8,82,0.00,,,0.00,WUHU216HW,2013-02-27 07:32:00,
2013-02-27 01:37:00,28.2,23.7,29.87,North,359,6.3,7.9,83,0.00,,,0.00,WUHU216HW,2013-02-27 07:37:00,
2013-02-27 01:42:00,28.4,23.9,29.87,North,355,5.7,6.9,83,0.00,,,0.00,WUHU216HW,2013-02-27 07:42:00,
2013-02-27 01:47:00,28.4,23.6,29.87,NW,310,6.5,6.7,82,0.00,,,0.00,WUHU216HW,2013-02-27 07:47:00,
2013-02-27 01:52:00,28.2,23.4,29.87,NNW,335,5.8,8.3,82,0.00,,,0.00,WUHU216HW,2013-02-27 07:52:00,
2013-02-27 01:57:00,27.8,23.0,29.87,NNW,337,4.1,5.4,82,0.00,,,0.00,WUHU216HW,2013-02-27 07:57:00,
2013-02-27 02:02:00,27.6,22.9,29.86,NNW,328,9.5,10.6,82,0.00,,,0.00,WUHU216HW,2013-02-27 08:02:00,
2013-02-27 02:07:00,27.3,22.8,29.86,NNW,334,7.2,9.8,83,0.00,,,0.00,WUHU216HW,2013-02-27 08:07:00,
2013-02-27 02:12:00,27.3,22.8,29.86,NNW,341,8.4,12.6,83,0.00,,,0.00,WUHU216HW,2013-02-27 08:12:00,
2013-02-27 02:18:00,27.1,22.6,29.86,NNW,341,9.8,17.3,83,0.00,,,0.00,WUHU216HW,2013-02-27 08:18:00,
2013-02-27 02:23:00,26.9,22.4,29.86,NNW,332,7.8,10.6,83,0.00,,,0.00,WUHU216HW,2013-02-27 08:23:00,
2013-02-27 02:28:00,26.9,22.4,29.86,NW,319,7.2,10.6,83,0.00,,,0.00,WUHU216HW,2013-02-27 08:28:00,
2013-02-27 02:33:00,26.9,22.4,29.85,NW,321,6.9,10.2,83,0.00,,,0.00,WUHU216HW,2013-02-27 08:33:00,
2013-02-27 02:38:00,26.7,22.2,29.85,NNW,336,9.8,12.3,83,0.00,,,0.00,WUHU216HW,2013-02-27 08:38:00,
2013-02-27 02:43:00,26.7,22.5,29.85,NW,326,6.1,9.8,84,0.00,,,0.00,WUHU216HW,2013-02-27 08:43:00,
2013-02-27 02:48:00,26.7,22.2,29.85,WNW,302,6.2,9.0,83,0.00,,,0.00,WUHU216HW,2013-02-27 08:48:00,
2013-02-27 02:53:00,26.7,22.2,29.85,NNW,333,7.4,9.5,83,0.00,,,0.00,WUHU216HW,2013-02-27 08:53:00,
2013-02-27 02:58:00,26.7,22.2,29.85,NNW,338,9.7,11.0,83,0.00,,,0.00,WUHU216HW,2013-02-27 08:58:00,
2013-02-27 03:03:00,26.6,22.1,29.85,NW,323,7.1,10.2,83,0.00,,,0.00,WUHU216HW,2013-02-27 09:03:00,
2013-02-27 03:08:00,26.7,22.2,29.85,NW,312,7.1,9.5,83,0.00,,,0.00,WUHU216HW,2013-02-27 09:08:00,
2013-02-27 03:13:00,26.7,22.2,29.85,NW,322,6.5,10.6,83,0.00,,,0.00,WUHU216HW,2013-02-27 09:13:00,
2013-02-27 03:18:00,26.7,22.2,29.85,North,3,5.2,7.2,83,0.00,,,0.00,WUHU216HW,2013-02-27 09:18:00,
2013-02-27 03:23:00,26.7,22.2,29.85,NNW,340,6.0,8.3,83,0.00,,,0.00,WUHU216HW,2013-02-27 09:23:00,
2013-02-27 03:28:00,26.9,22.4,29.85,NNW,338,7.4,10.6,83,0.00,,,0.00,WUHU216HW,2013-02-27 09:28:00,
2013-02-27 03:33:00,26.6,22.1,29.85,NW,323,8.4,14.1,83,0.00,,,0.00,WUHU216HW,2013-02-27 09:33:00,
2013-02-27 03:38:00,26.6,22.1,29.85,NW,324,6.4,7.9,83,0.00,,,0.00,WUHU216HW,2013-02-27 09:38:00,
2013-02-27 03:43:00,26.6,22.4,29.86,NNW,327,7.1,8.7,84,0.00,,,0.00,WUHU216HW,2013-02-27 09:43:00,
2013-02-27 03:48:00,26.6,22.4,29.86,NW,325,5.4,9.5,84,0.00,,,0.00,WUHU216HW,2013-02-27 09:48:00,
2013-02-27 03:53:00,26.7,22.5,29.86,NNW,329,5.4,6.9,84,0.00,,,0.00,WUHU216HW,2013-02-27 09:53:00,
2013-02-27 03:58:00,26.7,22.2,29.85,NW,326,6.1,9.8,83,0.00,,,0.00,WUHU216HW,2013-02-27 09:58:00,
2013-02-27 04:03:00,26.6,22.4,29.86,NNW,336,6.5,10.0,84,0.00,,,0.00,WUHU216HW,2013-02-27 10:03:00,
2013-02-27 04:08:00,26.7,22.5,29.86,NNW,328,7.1,10.8,84,0.00,,,0.00,WUHU216HW,2013-02-27 10:08:00,
2013-02-27 04:13:00,26.7,22.5,29.86,NNW,333,5.5,10.6,84,0.00,,,0.00,WUHU216HW,2013-02-27 10:13:00,
2013-02-27 04:18:00,26.6,22.4,29.86,NNW,337,8.0,11.8,84,0.00,,,0.00,WUHU216HW,2013-02-27 10:18:00,
2013-02-27 04:23:00,26.6,22.4,29.86,NNW,329,6.9,10.2,84,0.00,,,0.00,WUHU216HW,2013-02-27 10:23:00,
2013-02-27 04:28:00,26.4,22.0,29.86,NNW,341,6.0,10.0,83,0.00,,,0.00,WUHU216HW,2013-02-27 10:28:00,
2013-02-27 04:33:00,26.6,22.4,29.86,NNW,345,8.7,11.6,84,0.00,,,0.00,WUHU216HW,2013-02-27 10:33:00,
2013-02-27 04:38:00,26.6,22.4,29.86,NNW,332,9.1,14.4,84,0.00,,,0.00,WUHU216HW,2013-02-27 10:38:00,
2013-02-27 04:43:00,26.4,22.0,29.86,NNW,345,6.3,8.7,83,0.00,,,0.00,WUHU216HW,2013-02-27 10:43:00,
2013-02-27 04:48:00,26.4,22.0,29.86,NNW,344,8.3,12.1,83,0.00,,,0.00,WUHU216HW,2013-02-27 10:48:00,
2013-02-27 04:53:00,26.2,21.8,29.87,NNW,344,4.8,6.2,83,0.00,,,0.00,WUHU216HW,2013-02-27 10:53:00,
2013-02-27 04:58:00,26.2,21.8,29.86,NNW,340,9.3,11.3,83,0.00,,,0.00,WUHU216HW,2013-02-27 10:58:00,
2013-02-27 05:03:00,26.0,21.6,29.87,NNW,331,8.1,14.1,83,0.00,,,0.00,WUHU216HW,2013-02-27 11:03:00,
2013-02-27 05:08:00,26.0,21.6,29.87,NNW,334,8.5,10.6,83,0.00,,,0.00,WUHU216HW,2013-02-27 11:08:00,
2013-02-27 05:13:00,26.0,21.6,29.87,North,350,6.6,8.7,83,0.00,,,0.00,WUHU216HW,2013-02-27 11:13:00,
2013-02-27 05:18:00,26.0,21.6,29.87,NNW,335,7.1,15.4,83,0.00,,,0.00,WUHU216HW,2013-02-27 11:18:00,
2013-02-27 05:23:00,26.2,21.8,29.88,NNW,330,5.4,9.0,83,0.00,,,0.00,WUHU216HW,2013-02-27 11:23:00,
2013-02-27 05:28:00,26.2,21.8,29.88,NNW,347,5.3,7.2,83,0.00,,,0.00,WUHU216HW,2013-02-27 11:28:00,
2013-02-27 05:33:00,26.0,21.3,29.88,NW,320,8.9,15.4,82,0.00,,,0.00,WUHU216HW,2013-02-27 11:33:00,
2013-02-27 05:38:00,26.0,21.3,29.88,NNW,330,8.1,10.2,82,0.00,,,0.00,WUHU216HW,2013-02-27 11:38:00,
2013-02-27 05:43:00,25.8,21.4,29.88,North,349,4.8,6.2,83,0.00,,,0.00,WUHU216HW,2013-02-27 11:43:00,
2013-02-27 05:48:00,26.0,21.3,29.88,NW,312,7.4,13.9,82,0.00,,,0.00,WUHU216HW,2013-02-27 11:48:00,
2013-02-27 05:53:00,26.0,21.3,29.88,NW,325,5.8,8.5,82,0.00,,,0.00,WUHU216HW,2013-02-27 11:53:00,
2013-02-27 05:58:00,26.0,21.3,29.88,NW,309,4.9,7.5,82,0.00,,,0.00,WUHU216HW,2013-02-27 11:58:00,
2013-02-27 06:03:00,26.0,21.3,29.88,NNW,342,7.2,9.5,82,0.00,,,0.00,WUHU216HW,2013-02-27 12:03:00,
2013-02-27 06:08:00,26.0,21.3,29.88,NW,317,8.3,10.8,82,0.00,,,0.00,WUHU216HW,2013-02-27 12:08:00,
2013-02-27 06:13:00,25.8,21.1,29.89,NNW,348,7.9,8.5,82,0.00,,,0.00,WUHU216HW,2013-02-27 12:13:00,
2013-02-27 06:18:00,25.7,21.0,29.89,NNW,327,6.1,7.7,82,0.00,,,0.00,WUHU216HW,2013-02-27 12:18:00,
2013-02-27 06:23:00,25.7,21.0,29.89,NNW,341,9.2,11.8,82,0.00,,,0.00,WUHU216HW,2013-02-27 12:23:00,
2013-02-27 06:28:00,25.7,21.0,29.89,NNW,336,7.2,8.3,82,0.00,,,0.00,WUHU216HW,2013-02-27 12:28:00,
2013-02-27 06:33:00,25.7,21.0,29.89,NNW,345,6.2,12.1,82,0.00,,,0.00,WUHU216HW,2013-02-27 12:33:00,
2013-02-27 06:38:00,25.7,21.0,29.89,NW,320,4.5,6.9,82,0.00,,,0.00,WUHU216HW,2013-02-27 12:38:00,
2013-02-27 06:43:00,25.7,21.0,29.89,NW,325,7.0,15.6,82,0.00,,,0.00,WUHU216HW,2013-02-27 12:43:00,
2013-02-27 06:48:00,25.7,21.0,29.89,NNW,329,7.2,9.8,82,0.00,,,0.00,WUHU216HW,2013-02-27 12:48:00,
2013-02-27 06:53:00,25.7,21.0,29.89,NW,318,8.9,12.1,82,0.00,,,0.00,WUHU216HW,2013-02-27 12:53:00,
2013-02-27 06:58:00,25.7,21.0,29.89,NNW,345,6.4,10.2,82,0.00,,,0.00,WUHU216HW,2013-02-27 12:58:00,
2013-02-27 07:03:00,25.7,20.7,29.89,NNW,330,7.1,8.7,81,0.00,,,0.00,WUHU216HW,2013-02-27 13:03:00,
2013-02-27 07:08:00,25.5,20.5,29.89,NW,325,8.3,12.1,81,0.00,,,0.00,WUHU216HW,2013-02-27 13:08:00,
2013-02-27 07:13:00,25.3,20.6,29.89,NNW,332,10.1,15.4,82,0.00,,,0.00,WUHU216HW,2013-02-27 13:13:00,
2013-02-27 07:18:00,25.3,20.3,29.90,NW,326,8.7,12.1,81,0.00,,,0.00,WUHU216HW,2013-02-27 13:18:00,
2013-02-27 07:23:00,25.1,20.4,29.90,NNW,336,8.2,9.8,82,0.00,,,0.00,WUHU216HW,2013-02-27 13:23:00,
2013-02-27 07:28:00,25.3,20.3,29.90,NNW,329,9.9,11.0,81,0.00,,,0.00,WUHU216HW,2013-02-27 13:28:00,
2013-02-27 07:33:00,25.1,20.1,29.90,NW,326,6.3,8.3,81,0.00,,,0.00,WUHU216HW,2013-02-27 13:33:00,
2013-02-27 07:38:00,25.1,20.4,29.90,NNW,335,4.6,7.2,82,0.00,,,0.00,WUHU216HW,2013-02-27 13:38:00,
2013-02-27 07:43:00,25.3,20.0,29.90,NNW,330,7.4,9.3,80,0.00,,,0.00,WUHU216HW,2013-02-27 13:43:00,
2013-02-27 07:48:00,25.5,20.2,29.90,NNW,335,5.5,9.0,80,0.00,,,0.00,WUHU216HW,2013-02-27 13:48:00,
2013-02-27 07:53:00,25.3,20.0,29.90,NNW,328,8.1,13.3,80,0.00,,,0.00,WUHU216HW,2013-02-27 13:53:00,
2013-02-27 07:58:00,24.9,19.6,29.90,North,357,8.0,10.8,80,0.00,,,0.00,WUHU216HW,2013-02-27 13:58:00,
2013-02-27 08:03:00,24.9,19.6,29.91,NW,321,6.9,9.8,80,0.00,,,0.00,WUHU216HW,2013-02-27 14:03:00,
2013-02-27 08:08:00,24.8,19.5,29.91,NNW,337,7.0,11.8,80,0.00,,,0.00,WUHU216HW,2013-02-27 14:08:00,
2013-02-27 08:13:00,24.8,19.5,29.91,NNW,331,5.5,7.9,80,0.00,,,0.00,WUHU216HW,2013-02-27 14:13:00,
2013-02-27 08:18:00,24.9,19.6,29.91,NNW,347,6.4,8.7,80,0.00,,,0.00,WUHU216HW,2013-02-27 14:18:00,
2013-02-27 08:23:00,24.9,19.6,29.91,NNW,339,6.9,8.7,80,0.00,,,0.00,WUHU216HW,2013-02-27 14:23:00,
2013-02-27 08:28:00,24.9,19.6,29.91,NNW,334,6.4,7.9,80,0.00,,,0.00,WUHU216HW,2013-02-27 14:28:00,
2013-02-27 08:33:00,24.9,19.6,29.91,North,350,5.5,7.9,80,0.00,,,0.00,WUHU216HW,2013-02-27 14:33:00,
2013-02-27 08:38:00,24.8,19.5,29.91,North,349,7.7,10.6,80,0.00,,,0.00,WUHU216HW,2013-02-27 14:38:00,
2013-02-27 08:43:00,24.8,19.2,29.91,NW,322,5.5,7.5,79,0.00,,,0.00,WUHU216HW,2013-02-27 14:43:00,
2013-02-27 08:48:00,24.9,19.3,29.91,NNW,327,6.2,7.9,79,0.00,,,0.00,WUHU216HW,2013-02-27 14:48:00,
2013-02-27 08:53:00,24.8,19.2,29.91,NW,311,7.6,8.5,79,0.00,,,0.00,WUHU216HW,2013-02-27 14:53:00,
2013-02-27 08:58:00,24.9,19.3,29.91,NNW,339,7.2,10.0,79,0.00,,,0.00,WUHU216HW,2013-02-27 14:58:00,
2013-02-27 09:03:00,24.9,19.3,29.91,NNW,337,6.5,10.6,79,0.00,,,0.00,WUHU216HW,2013-02-27 15:03:00,
2013-02-27 09:08:00,24.9,18.8,29.92,NW,320,8.9,12.3,77,0.00,,,0.00,WUHU216HW,2013-02-27 15:08:00,
2013-02-27 09:13:00,24.9,19.0,29.91,NW,317,7.0,10.6,78,0.00,,,0.00,WUHU216HW,2013-02-27 15:13:00,
2013-02-27 09:18:00,24.9,19.0,29.92,NW,309,7.1,10.6,78,0.00,,,0.00,WUHU216HW,2013-02-27 15:18:00,
2013-02-27 09:23:00,25.3,19.1,29.91,NW,326,7.8,12.3,77,0.00,,,0.00,WUHU216HW,2013-02-27 15:23:00,
2013-02-27 09:28:00,25.5,19.3,29.92,NW,325,6.2,9.0,77,0.00,,,0.00,WUHU216HW,2013-02-27 15:28:00,
2013-02-27 09:33:00,25.7,19.8,29.92,NNW,337,4.7,5.6,78,0.00,,,0.00,WUHU216HW,2013-02-27 15:33:00,
2013-02-27 09:38:00,26.2,19.7,29.92,NW,325,6.9,9.3,76,0.00,,,0.00,WUHU216HW,2013-02-27 15:38:00,
2013-02-27 09:43:00,26.4,19.6,29.92,NNW,331,7.5,10.2,75,0.00,,,0.00,WUHU216HW,2013-02-27 15:43:00,
2013-02-27 09:48:00,26.2,19.4,29.92,NW,317,8.2,12.1,75,0.00,,,0.00,WUHU216HW,2013-02-27 15:48:00,
2013-02-27 09:53:00,26.4,19.6,29.93,NNW,334,7.1,10.8,75,0.00,,,0.00,WUHU216HW,2013-02-27 15:53:00,
2013-02-27 09:58:00,26.6,19.8,29.92,NNW,340,6.7,8.5,75,0.00,,,0.00,WUHU216HW,2013-02-27 15:58:00,
2013-02-27 10:03:00,26.9,20.1,29.92,NNW,332,5.7,7.5,75,0.00,,,0.00,WUHU216HW,2013-02-27 16:03:00,
2013-02-27 10:08:00,27.3,20.5,29.92,NNW,327,6.5,8.7,75,0.00,,,0.00,WUHU216HW,2013-02-27 16:08:00,
2013-02-27 10:13:00,27.6,20.2,29.92,NNW,341,11.3,14.7,73,0.00,,,0.00,WUHU216HW,2013-02-27 16:13:00,
2013-02-27 10:18:00,27.5,19.7,29.93,NNW,334,11.2,13.1,72,0.00,,,0.00,WUHU216HW,2013-02-27 16:18:00,
2013-02-27 10:23:00,27.8,20.0,29.93,NNW,334,10.0,15.4,72,0.00,,,0.00,WUHU216HW,2013-02-27 16:23:00,
2013-02-27 10:28:00,27.8,20.0,29.93,NNW,333,10.9,13.3,72,0.00,,,0.00,WUHU216HW,2013-02-27 16:28:00,
2013-02-27 10:33:00,27.8,19.7,29.93,NNW,327,9.3,13.7,71,0.00,,,0.00,WUHU216HW,2013-02-27 16:33:00,
2013-02-27 10:38:00,28.0,20.2,29.93,NNW,344,10.9,15.2,72,0.00,,,0.00,WUHU216HW,2013-02-27 16:38:00,
2013-02-27 10:43:00,28.4,20.3,29.93,North,349,6.6,8.5,71,0.00,,,0.00,WUHU216HW,2013-02-27 16:43:00,
2013-02-27 10:48:00,28.7,19.9,29.93,NNW,336,6.4,7.2,69,0.00,,,0.00,WUHU216HW,2013-02-27 16:48:00,
2013-02-27 10:53:00,28.7,20.2,29.93,NNW,333,6.9,8.3,70,0.00,,,0.00,WUHU216HW,2013-02-27 16:53:00,
2013-02-27 10:58:00,29.1,20.6,29.93,NW,326,7.4,9.8,70,0.00,,,0.00,WUHU216HW,2013-02-27 16:58:00,
2013-02-27 11:03:00,28.9,19.8,29.93,NNW,337,14.0,25.2,68,0.00,,,0.00,WUHU216HW,2013-02-27 17:03:00,
2013-02-27 11:08:00,29.1,20.3,29.93,NNW,334,10.2,13.1,69,0.00,,,0.00,WUHU216HW,2013-02-27 17:08:00,
2013-02-27 11:13:00,29.6,20.8,29.93,NNW,333,8.7,13.3,69,0.00,,,0.00,WUHU216HW,2013-02-27 17:13:00,
2013-02-27 11:18:00,29.8,20.3,29.94,NNW,335,10.9,14.9,67,0.00,,,0.00,WUHU216HW,2013-02-27 17:18:00,
2013-02-27 11:23:00,30.0,20.8,29.94,North,354,7.6,9.5,68,0.00,,,0.00,WUHU216HW,2013-02-27 17:23:00,
2013-02-27 11:28:00,30.3,20.3,29.94,North,359,8.5,11.6,66,0.00,,,0.00,WUHU216HW,2013-02-27 17:28:00,
2013-02-27 11:33:00,30.4,20.4,29.94,NNW,337,9.8,14.7,66,0.00,,,0.00,WUHU216HW,2013-02-27 17:33:00,
2013-02-27 11:38:00,30.8,21.2,29.94,NNW,328,8.1,8.7,67,0.00,,,0.00,WUHU216HW,2013-02-27 17:38:00,
2013-02-27 11:43:00,31.3,21.3,29.94,NW,326,9.6,12.9,66,0.00,,,0.00,WUHU216HW,2013-02-27 17:43:00,
2013-02-27 11:48:00,31.5,21.5,29.94,NNW,344,8.0,10.6,66,0.00,,,0.00,WUHU216HW,2013-02-27 17:48:00,
2013-02-27 11:53:00,31.7,21.3,29.94,NNW,333,7.9,10.6,65,0.00,,,0.00,WUHU216HW,2013-02-27 17:53:00,
2013-02-27 11:58:00,31.9,21.5,29.94,NNW,330,11.6,16.4,65,0.00,,,0.00,WUHU216HW,2013-02-27 17:58:00,
2013-02-27 12:03:00,31.9,21.9,29.93,NNW,348,9.0,12.9,66,0.00,,,0.00,WUHU216HW,2013-02-27 18:03:00,
2013-02-27 12:08:00,32.2,21.8,29.93,NNW,341,9.8,14.4,65,0.00,,,0.00,WUHU216HW,2013-02-27 18:08:00,
2013-02-27 12:13:00,32.1,21.7,29.93,NNW,338,10.0,11.0,65,0.00,,,0.00,WUHU216HW,2013-02-27 18:13:00,
2013-02-27 12:18:00,32.2,21.8,29.93,NNW,331,11.6,15.2,65,0.00,,,0.00,WUHU216HW,2013-02-27 18:18:00,
2013-02-27 12:23:00,32.4,21.6,29.93,NNW,329,13.4,16.4,64,0.00,,,0.00,WUHU216HW,2013-02-27 18:23:00,
2013-02-27 12:28:00,32.6,22.2,29.93,NNW,336,8.7,9.8,65,0.00,,,0.00,WUHU216HW,2013-02-27 18:28:00,
2013-02-27 12:33:00,33.0,22.5,29.93,North,354,8.4,12.6,65,0.00,,,0.00,WUHU216HW,2013-02-27 18:33:00,
2013-02-27 12:38:00,33.5,22.3,29.93,NNW,329,11.2,14.7,63,0.00,,,0.00,WUHU216HW,2013-02-27 18:38:00,
2013-02-27 12:43:00,33.5,22.7,29.93,NNW,342,7.5,9.8,64,0.00,,,0.00,WUHU216HW,2013-02-27 18:43:00,
2013-02-27 12:48:00,33.7,22.5,29.93,NNW,334,12.1,15.4,63,0.00,,,0.00,WUHU216HW,2013-02-27 18:48:00,
2013-02-27 12:53:00,33.9,22.7,29.93,NNW,345,9.7,11.8,63,0.00,,,0.00,WUHU216HW,2013-02-27 18:53:00,
2013-02-27 12:58:00,34.0,23.1,29.93,NNW,337,8.0,10.6,64,0.00,,,0.00,WUHU216HW,2013-02-27 18:58:00,
2013-02-27 13:03:00,34.4,22.8,29.93,NNW,332,9.9,11.6,62,0.00,,,0.00,WUHU216HW,2013-02-27 19:03:00,
2013-02-27 13:08:00,34.4,23.5,29.93,NNW,343,9.6,17.7,64,0.00,,,0.00,WUHU216HW,2013-02-27 19:08:00,
2013-02-27 13:13:00,34.6,22.9,29.93,NW,321,9.8,13.7,62,0.00,,,0.00,WUHU216HW,2013-02-27 19:13:00,
2013-02-27 13:18:00,34.8,23.5,29.93,NNW,327,8.0,11.3,63,0.00,,,0.00,WUHU216HW,2013-02-27 19:18:00,
2013-02-27 13:23:00,35.1,23.0,29.93,NW,326,13.8,22.4,61,0.00,,,0.00,WUHU216HW,2013-02-27 19:23:00,
2013-02-27 13:28:00,35.1,23.4,29.93,NNW,340,9.6,18.5,62,0.00,,,0.00,WUHU216HW,2013-02-27 19:28:00,
2013-02-27 13:33:00,35.3,22.8,29.93,NW,316,10.6,12.3,60,0.00,,,0.00,WUHU216HW,2013-02-27 19:33:00,
2013-02-27 13:38:00,35.3,22.8,29.93,NW,311,13.6,17.3,60,0.00,,,0.00,WUHU216HW,2013-02-27 19:38:00,
2013-02-27 13:43:00,35.5,23.4,29.93,NW,325,6.2,6.9,61,0.00,,,0.00,WUHU216HW,2013-02-27 19:43:00,
2013-02-27 13:48:00,35.7,23.2,29.93,NNW,339,11.9,20.4,60,0.00,,,0.00,WUHU216HW,2013-02-27 19:48:00,
2013-02-27 13:53:00,35.5,23.0,29.93,NW,322,11.1,16.4,60,0.00,,,0.00,WUHU216HW,2013-02-27 19:53:00,
2013-02-27 13:58:00,35.5,23.0,29.93,NNW,335,14.1,19.8,60,0.00,,,0.00,WUHU216HW,2013-02-27 19:58:00,
2013-02-27 14:03:00,35.7,23.2,29.93,NNW,330,9.9,14.4,60,0.00,,,0.00,WUHU216HW,2013-02-27 20:03:00,
2013-02-27 14:08:00,35.8,23.3,29.94,NNW,336,8.2,10.8,60,0.00,,,0.00,WUHU216HW,2013-02-27 20:08:00,
2013-02-27 14:13:00,35.8,23.3,29.93,NNW,337,9.5,13.9,60,0.00,,,0.00,WUHU216HW,2013-02-27 20:13:00,
2013-02-27 14:18:00,36.0,23.5,29.93,North,355,9.3,12.9,60,0.00,,,0.00,WUHU216HW,2013-02-27 20:18:00,
2013-02-27 14:23:00,36.4,23.9,29.94,NNW,343,7.2,12.1,60,0.00,,,0.00,WUHU216HW,2013-02-27 20:23:00,
2013-02-27 14:28:00,36.6,24.1,29.93,NNW,343,6.9,9.8,60,0.00,,,0.00,WUHU216HW,2013-02-27 20:28:00,
2013-02-27 14:33:00,36.7,23.7,29.93,NNW,336,11.2,15.4,59,0.00,,,0.00,WUHU216HW,2013-02-27 20:33:00,
2013-02-27 14:39:00,36.9,24.3,29.93,NNW,330,13.0,17.3,60,0.00,,,0.00,WUHU216HW,2013-02-27 20:39:00,
2013-02-27 14:44:00,36.7,23.7,29.93,NNW,348,14.2,17.3,59,0.00,,,0.00,WUHU216HW,2013-02-27 20:44:00,
2013-02-27 14:49:00,36.9,23.9,29.93,NNW,333,10.4,15.2,59,0.00,,,0.00,WUHU216HW,2013-02-27 20:49:00,
2013-02-27 14:54:00,37.1,24.1,29.94,North,353,12.3,14.7,59,0.00,,,0.00,WUHU216HW,2013-02-27 20:54:00,
2013-02-27 14:59:00,37.3,23.9,29.94,NNW,343,7.2,9.8,58,0.00,,,0.00,WUHU216HW,2013-02-27 20:59:00,
2013-02-27 15:04:00,37.3,23.9,29.94,North,351,12.6,20.0,58,0.00,,,0.00,WUHU216HW,2013-02-27 21:04:00,
2013-02-27 15:09:00,37.5,24.5,29.95,NNW,340,12.0,14.4,59,0.00,,,0.00,WUHU216HW,2013-02-27 21:09:00,
2013-02-27 15:14:00,37.5,24.5,29.95,NNW,335,13.4,17.3,59,0.00,,,0.00,WUHU216HW,2013-02-27 21:14:00,
2013-02-27 15:19:00,37.5,24.5,29.95,NW,318,10.7,13.1,59,0.00,,,0.00,WUHU216HW,2013-02-27 21:19:00,
2013-02-27 15:24:00,37.6,24.2,29.95,NNW,343,11.8,16.0,58,0.00,,,0.00,WUHU216HW,2013-02-27 21:24:00,
2013-02-27 15:29:00,37.6,24.2,29.95,NNW,348,13.2,21.6,58,0.00,,,0.00,WUHU216HW,2013-02-27 21:29:00,
2013-02-27 15:34:00,37.5,24.5,29.95,NNW,328,8.3,12.9,59,0.00,,,0.00,WUHU216HW,2013-02-27 21:34:00,
2013-02-27 15:39:00,37.5,24.5,29.95,NNW,332,12.1,21.4,59,0.00,,,0.00,WUHU216HW,2013-02-27 21:39:00,
2013-02-27 15:44:00,37.3,24.3,29.95,NNW,334,14.7,18.5,59,0.00,,,0.00,WUHU216HW,2013-02-27 21:44:00,
2013-02-27 15:49:00,37.1,24.5,29.95,NNW,335,11.7,16.0,60,0.00,,,0.00,WUHU216HW,2013-02-27 21:49:00,
2013-02-27 15:54:00,37.1,24.5,29.95,NW,320,8.6,15.6,60,0.00,,,0.00,WUHU216HW,2013-02-27 21:54:00,
2013-02-27 15:59:00,37.3,24.7,29.95,NNW,331,7.4,9.3,60,0.00,,,0.00,WUHU216HW,2013-02-27 21:59:00,
2013-02-27 16:04:00,36.9,24.3,29.95,NNW,328,11.5,20.4,60,0.00,,,0.00,WUHU216HW,2013-02-27 22:04:00,
2013-02-27 16:09:00,36.6,24.1,29.95,NNW,341,11.9,16.0,60,0.00,,,0.00,WUHU216HW,2013-02-27 22:09:00,
2013-02-27 16:14:00,36.4,23.9,29.95,NNW,328,13.8,17.7,60,0.00,,,0.00,WUHU216HW,2013-02-27 22:14:00,
2013-02-27 16:19:00,36.2,23.7,29.95,NNW,341,13.3,16.4,60,0.00,,,0.00,WUHU216HW,2013-02-27 22:19:00,
2013-02-27 16:24:00,36.2,23.7,29.95,NNW,337,11.1,16.4,60,0.00,,,0.00,WUHU216HW,2013-02-27 22:24:00,
2013-02-27 16:29:00,36.0,23.9,29.96,NNW,331,10.9,12.1,61,0.00,,,0.00,WUHU216HW,2013-02-27 22:29:00,
2013-02-27 16:34:00,36.0,23.5,29.96,NNW,338,11.9,14.1,60,0.00,,,0.00,WUHU216HW,2013-02-27 22:34:00,
2013-02-27 16:39:00,35.8,23.3,29.96,NW,319,13.1,17.3,60,0.00,,,0.00,WUHU216HW,2013-02-27 22:39:00,
2013-02-27 16:44:00,36.0,23.9,29.96,NNW,335,9.3,11.3,61,0.00,,,0.00,WUHU216HW,2013-02-27 22:44:00,
2013-02-27 16:49:00,36.2,24.1,29.96,North,350,7.7,12.9,61,0.00,,,0.00,WUHU216HW,2013-02-27 22:49:00,
2013-02-27 16:54:00,36.0,23.5,29.96,NNW,335,14.3,18.7,60,0.00,,,0.00,WUHU216HW,2013-02-27 22:54:00,
2013-02-27 16:59:00,35.8,23.3,29.96,NNW,332,12.6,14.7,60,0.00,,,0.00,WUHU216HW,2013-02-27 22:59:00,
2013-02-27 17:04:00,35.8,23.7,29.96,NNW,330,12.4,17.5,61,0.00,,,0.00,WUHU216HW,2013-02-27 23:04:00,
2013-02-27 17:09:00,35.8,24.1,29.97,NNW,329,8.8,13.9,62,0.00,,,0.00,WUHU216HW,2013-02-27 23:09:00,
2013-02-27 17:14:00,35.8,23.7,29.97,NW,325,14.7,19.1,61,0.00,,,0.00,WUHU216HW,2013-02-27 23:14:00,
2013-02-27 17:19:00,35.7,23.6,29.97,NNW,339,9.2,13.1,61,0.00,,,0.00,WUHU216HW,2013-02-27 23:19:00,
2013-02-27 17:24:00,35.5,23.4,29.97,NNW,340,13.1,15.6,61,0.00,,,0.00,WUHU216HW,2013-02-27 23:24:00,
2013-02-27 17:29:00,35.3,23.6,29.97,NNW,333,9.7,11.8,62,0.00,,,0.00,WUHU216HW,2013-02-27 23:29:00,
2013-02-27 17:34:00,35.3,23.6,29.97,NW,323,8.6,11.6,62,0.00,,,0.00,WUHU216HW,2013-02-27 23:34:00,
2013-02-27 17:39:00,35.1,23.8,29.98,NNW,332,8.4,12.9,63,0.00,,,0.00,WUHU216HW,2013-02-27 23:39:00,
2013-02-27 17:44:00,34.9,24.0,29.98,NW,326,12.0,16.4,64,0.00,,,0.00,WUHU216HW,2013-02-27 23:44:00,
2013-02-27 17:49:00,34.8,23.9,29.98,NW,322,12.8,20.0,64,0.00,,,0.00,WUHU216HW,2013-02-27 23:49:00,
2013-02-27 17:54:00,34.6,24.1,29.98,North,356,8.6,12.9,65,0.00,,,0.00,WUHU216HW,2013-02-27 23:54:00,
2013-02-27 17:59:00,34.6,24.4,29.98,NNW,331,10.3,14.7,66,0.00,,,0.00,WUHU216HW,2013-02-27 23:59:00,
2013-02-27 18:04:00,34.4,24.3,29.98,NNW,336,10.3,15.4,66,0.00,,,0.00,WUHU216HW,2013-02-28 00:04:00,
2013-02-27 18:09:00,34.2,24.4,29.98,NW,322,10.9,13.1,67,0.00,,,0.00,WUHU216HW,2013-02-28 00:09:00,
2013-02-27 18:14:00,34.0,24.2,29.99,NNW,338,10.9,15.6,67,0.00,,,0.00,WUHU216HW,2013-02-28 00:14:00,
2013-02-27 18:19:00,33.9,24.1,29.99,NNW,332,9.4,16.0,67,0.00,,,0.00,WUHU216HW,2013-02-28 00:19:00,
2013-02-27 18:24:00,33.9,24.1,29.99,NNW,331,8.6,12.9,67,0.00,,,0.00,WUHU216HW,2013-02-28 00:24:00,
2013-02-27 18:29:00,33.7,24.3,29.99,North,352,6.2,8.3,68,0.00,,,0.00,WUHU216HW,2013-02-28 00:29:00,
2013-02-27 18:34:00,33.7,24.3,29.99,NNW,330,12.5,15.2,68,0.00,,,0.00,WUHU216HW,2013-02-28 00:34:00,
2013-02-27 18:39:00,33.7,24.3,29.99,NNW,345,10.1,13.1,68,0.00,,,0.00,WUHU216HW,2013-02-28 00:39:00,
2013-02-27 18:44:00,33.7,24.3,29.99,NNW,328,12.0,14.7,68,0.00,,,0.00,WUHU216HW,2013-02-28 00:44:00,
2013-02-27 18:49:00,33.7,24.6,30.00,NNW,335,13.9,21.9,69,0.00,,,0.00,WUHU216HW,2013-02-28 00:49:00,
2013-02-27 18:54:00,33.5,24.5,30.00,North,8,11.9,18.1,69,0.00,,,0.00,WUHU216HW,2013-02-28 00:54:00,
2013-02-27 18:59:00,33.5,24.8,30.00,NNW,334,10.4,12.6,70,0.00,,,0.00,WUHU216HW,2013-02-28 00:59:00,
2013-02-27 19:04:00,33.3,24.6,30.00,NNW,331,11.2,13.9,70,0.00,,,0.00,WUHU216HW,2013-02-28 01:04:00,
2013-02-27 19:09:00,33.3,24.6,30.00,NNW,341,10.6,12.1,70,0.00,,,0.00,WUHU216HW,2013-02-28 01:09:00,
2013-02-27 19:14:00,33.1,24.7,30.00,NW,306,10.3,15.2,71,0.00,,,0.00,WUHU216HW,2013-02-28 01:14:00,
2013-02-27 19:19:00,33.1,24.7,30.01,NW,323,10.3,16.2,71,0.00,,,0.00,WUHU216HW,2013-02-28 01:19:00,
2013-02-27 19:24:00,33.0,25.0,30.01,NNW,329,11.3,12.6,72,0.00,,,0.00,WUHU216HW,2013-02-28 01:24:00,
2013-02-27 19:29:00,33.0,25.3,30.01,NNW,338,10.4,18.1,73,0.00,,,0.00,WUHU216HW,2013-02-28 01:29:00,
2013-02-27 19:34:00,33.0,25.3,30.01,NNW,337,9.1,13.7,73,0.00,,,0.00,WUHU216HW,2013-02-28 01:34:00,
2013-02-27 19:39:00,33.0,25.6,30.01,NNW,337,8.8,10.6,74,0.00,,,0.00,WUHU216HW,2013-02-28 01:39:00,
2013-02-27 19:44:00,33.0,25.6,30.01,NW,325,14.6,17.0,74,0.00,,,0.00,WUHU216HW,2013-02-28 01:44:00,
2013-02-27 19:49:00,33.0,25.6,30.01,NNW,338,8.1,9.8,74,0.00,,,0.00,WUHU216HW,2013-02-28 01:49:00,
2013-02-27 19:54:00,33.0,25.9,30.01,NW,321,9.3,11.3,75,0.00,,,0.00,WUHU216HW,2013-02-28 01:54:00,
2013-02-27 19:59:00,33.0,25.9,30.02,NNW,335,12.3,16.0,75,0.00,,,0.00,WUHU216HW,2013-02-28 01:59:00,
2013-02-27 20:04:00,32.8,25.8,30.02,NNW,333,14.7,17.3,75,0.00,,,0.00,WUHU216HW,2013-02-28 02:04:00,
2013-02-27 20:09:00,32.6,25.9,30.02,NNW,338,9.6,13.9,76,0.00,,,0.00,WUHU216HW,2013-02-28 02:09:00,
2013-02-27 20:14:00,32.4,25.7,30.02,NNW,348,12.1,15.4,76,0.00,,,0.00,WUHU216HW,2013-02-28 02:14:00,
2013-02-27 20:19:00,32.4,25.7,30.02,NNW,328,10.4,13.7,76,0.00,,,0.00,WUHU216HW,2013-02-28 02:19:00,
2013-02-27 20:24:00,32.2,25.5,30.02,NW,326,8.8,13.3,76,0.00,,,0.00,WUHU216HW,2013-02-28 02:24:00,
2013-02-27 20:29:00,32.2,25.5,30.02,NNW,334,14.7,19.1,76,0.00,,,0.00,WUHU216HW,2013-02-28 02:29:00,
2013-02-27 20:34:00,32.2,25.5,30.02,NNW,334,8.9,13.9,76,0.00,,,0.00,WUHU216HW,2013-02-28 02:34:00,
2013-02-27 20:39:00,32.2,25.5,30.02,NW,319,10.6,14.9,76,0.00,,,0.00,WUHU216HW,2013-02-28 02:39:00,
2013-02-27 20:44:00,32.1,25.4,30.02,NNW,331,11.2,17.7,76,0.00,,,0.00,WUHU216HW,2013-02-28 02:44:00,
2013-02-27 20:49:00,32.1,25.4,30.02,NNW,346,7.5,8.5,76,0.00,,,0.00,WUHU216HW,2013-02-28 02:49:00,
2013-02-27 20:54:00,31.9,25.5,30.02,NNW,335,8.8,11.6,77,0.00,,,0.00,WUHU216HW,2013-02-28 02:54:00,
2013-02-27 20:59:00,31.9,25.5,30.02,NNW,339,13.8,20.0,77,0.00,,,0.00,WUHU216HW,2013-02-28 02:59:00,
2013-02-27 21:04:00,31.9,25.5,30.02,NNW,338,12.4,20.0,77,0.00,,,0.00,WUHU216HW,2013-02-28 03:04:00,
2013-02-27 21:09:00,31.9,25.5,30.02,NW,326,10.1,13.1,77,0.00,,,0.00,WUHU216HW,2013-02-28 03:09:00,
2013-02-27 21:14:00,31.7,25.3,30.03,NNW,343,8.0,9.8,77,0.00,,,0.00,WUHU216HW,2013-02-28 03:14:00,
2013-02-27 21:19:00,31.7,25.6,30.02,NNW,327,7.6,8.7,78,0.00,,,0.00,WUHU216HW,2013-02-28 03:19:00,
2013-02-27 21:24:00,31.5,25.4,30.02,North,349,9.3,12.1,78,0.00,,,0.00,WUHU216HW,2013-02-28 03:24:00,
2013-02-27 21:29:00,31.5,25.1,30.02,NW,322,11.8,18.5,77,0.00,,,0.00,WUHU216HW,2013-02-28 03:29:00,
2013-02-27 21:34:00,31.5,25.1,30.03,NW,326,10.6,14.7,77,0.00,,,0.00,WUHU216HW,2013-02-28 03:34:00,
2013-02-27 21:39:00,31.5,25.1,30.02,NNW,338,14.1,17.7,77,0.00,,,0.00,WUHU216HW,2013-02-28 03:39:00,
2013-02-27 21:44:00,31.7,25.3,30.02,NNW,331,12.6,18.3,77,0.00,,,0.00,WUHU216HW,2013-02-28 03:44:00,
2013-02-27 21:49:00,31.5,25.1,30.03,NNW,338,12.0,16.0,77,0.00,,,0.00,WUHU216HW,2013-02-28 03:49:00,
2013-02-27 21:54:00,31.5,25.1,30.03,NNW,338,9.2,13.9,77,0.00,,,0.00,WUHU216HW,2013-02-28 03:54:00,
2013-02-27 21:59:00,31.5,25.1,30.03,NNW,337,12.0,13.3,77,0.00,,,0.00,WUHU216HW,2013-02-28 03:59:00,
2013-02-27 22:04:00,31.5,25.1,30.03,WNW,296,10.2,13.1,77,0.00,,,0.00,WUHU216HW,2013-02-28 04:04:00,
2013-02-27 22:09:00,31.5,24.8,30.03,NNW,333,13.3,16.4,76,0.00,,,0.00,WUHU216HW,2013-02-28 04:09:00,
2013-02-27 22:14:00,31.3,24.6,30.03,NW,320,12.6,16.0,76,0.00,,,0.00,WUHU216HW,2013-02-28 04:14:00,
2013-02-27 22:19:00,31.2,24.5,30.03,North,354,11.2,14.7,76,0.00,,,0.00,WUHU216HW,2013-02-28 04:19:00,
2013-02-27 22:24:00,31.2,24.8,30.03,NNW,344,10.3,14.1,77,0.00,,,0.00,WUHU216HW,2013-02-28 04:24:00,
2013-02-27 22:30:00,31.2,24.5,30.03,North,353,12.6,16.0,76,0.00,,,0.00,WUHU216HW,2013-02-28 04:30:00,
2013-02-27 22:35:00,31.0,24.3,30.03,NNW,334,14.7,19.5,76,0.00,,,0.00,WUHU216HW,2013-02-28 04:35:00,
2013-02-27 22:40:00,31.0,24.3,30.03,NNW,331,12.1,14.9,76,0.00,,,0.00,WUHU216HW,2013-02-28 04:40:00,
2013-02-27 22:45:00,30.8,24.1,30.03,NNW,347,11.1,15.4,76,0.00,,,0.00,WUHU216HW,2013-02-28 04:45:00,
2013-02-27 22:50:00,30.8,24.4,30.03,NNW,327,10.2,13.3,77,0.00,,,0.00,WUHU216HW,2013-02-28 04:50:00,
2013-02-27 22:55:00,30.6,24.2,30.03,NNW,333,11.7,17.3,77,0.00,,,0.00,WUHU216HW,2013-02-28 04:55:00,
2013-02-27 23:00:00,30.4,24.0,30.03,NNW,333,8.8,12.9,77,0.00,,,0.00,WUHU216HW,2013-02-28 05:00:00,
2013-02-27 23:05:00,30.4,24.3,30.03,NNW,341,8.3,11.3,78,0.00,,,0.00,WUHU216HW,2013-02-28 05:05:00,
2013-02-27 23:10:00,30.4,24.3,30.03,NNW,343,7.1,8.7,78,0.00,,,0.00,WUHU216HW,2013-02-28 05:10:00,
2013-02-27 23:15:00,30.4,24.0,30.03,NNW,339,10.8,12.9,77,0.00,,,0.00,WUHU216HW,2013-02-28 05:15:00,
2013-02-27 23:20:00,30.3,23.6,30.04,NNW,331,7.6,10.2,76,0.00,,,0.00,WUHU216HW,2013-02-28 05:20:00,
2013-02-27 23:25:00,30.0,23.1,30.04,NNW,332,11.8,18.7,75,0.00,,,0.00,WUHU216HW,2013-02-28 05:25:00,
2013-02-27 23:30:00,30.0,23.1,30.04,North,355,7.8,13.7,75,0.00,,,0.00,WUHU216HW,2013-02-28 05:30:00,
2013-02-27 23:35:00,29.8,23.2,30.04,NNW,339,6.4,9.0,76,0.00,,,0.00,WUHU216HW,2013-02-28 05:35:00,
2013-02-27 23:40:00,29.6,23.0,30.05,NW,319,9.6,15.6,76,0.00,,,0.00,WUHU216HW,2013-02-28 05:40:00,
2013-02-27 23:45:00,29.4,22.8,30.05,NW,322,9.4,18.1,76,0.00,,,0.00,WUHU216HW,2013-02-28 05:45:00,
2013-02-27 23:50:00,29.4,22.5,30.05,NNW,335,10.5,11.8,75,0.00,,,0.00,WUHU216HW,2013-02-28 05:50:00,
2013-02-27 23:55:00,29.4,22.5,30.05,NW,319,15.8,19.8,75,0.00,,,0.00,WUHU216HW,2013-02-28 05:55:00,